Regional Weather Roundup
Issued by NWS Little Rock, AR

Home | Current Version | Previous Version | Graphics & Text | Print | Product List | Glossary On
Versions: 1 2 3 4 5 6 7 8 9 10 11 12 13 14 15 16 17 18 19 20 21 22 23 24 25 26 27 28 29 30 31 32
000
ASUS44 KLZK 132005
RWRLZK

WEATHER ROUNDUP FOR ARKANSAS
NATIONAL WEATHER SERVICE LITTLE ROCK AR
200 PM CST WED DEC 13 2017

NOTE: "FAIR" INDICATES FEW OR NO CLOUDS BELOW 12,000 FEET WITH NO
SIGNIFICANT WEATHER AND/OR OBSTRUCTIONS TO VISIBILITY.

ARZ001-003-010-029-132100-
NORTHWEST ARKANSAS

CITY           SKY/WX    TMP DP  RH WIND       PRES   REMARKS
FAYETTEVILLE   SUNNY     58  27  30 NW9       29.84S
FORT SMITH     SUNNY     63  24  22 W16       29.83F
HARRISON       SUNNY     58  25  28 W10G20    29.77F
BENTONVILLE    SUNNY     57  26  30 NW12      29.84S HAZE
ROGERS         CLOUDY    57  26  30 W15       29.82F
SILOAM SPGS    SUNNY     59  27  29 NW12      29.84F
HIGHFILL       MOSUNNY   59  26  28 NW12G18   29.83F
SPRINGDALE     SUNNY     57  27  30 NW9       29.84S
$$

ARZ004-005-016-132100-
NORTH CENTRAL ARKANSAS

CITY           SKY/WX    TMP DP  RH WIND       PRES   REMARKS
BATESVILLE     SUNNY     61  25  25 SW15      29.76F
FLIPPIN        MOSUNNY   61  26  26 W13G22    29.76S
MTN HOME       SUNNY     58  25  28 NW9G18    29.75S
$$

ARZ040-041-132100-
WEST CENTRAL ARKANSAS

CITY           SKY/WX    TMP DP  RH WIND       PRES   REMARKS
MENA           SUNNY     64  23  20 SW9G20    29.84F
MOUNT IDA      SUNNY     67  24  19 VRB5      29.81F
$$

ARZ009-017-025-026-028-132100-
NORTHEAST ARKANSAS

CITY           SKY/WX    TMP DP  RH WIND       PRES   REMARKS
JONESBORO      SUNNY     58  27  30 SW24G35   29.75F
NEWPORT        SUNNY     60  24  25 SW23      29.75F
WALNUT RIDGE   MOSUNNY   58  24  27 SW18G25   29.72F
BLYTHEVILLE    SUNNY     56  27  32 SW28G39   29.74F
NW BLYTHEVILLE PTSUNNY   57  27  30 SW23G36   29.75F
$$

ARZ022-023-033-042-044-132100-
CENTRAL ARKANSAS

CITY           SKY/WX    TMP DP  RH WIND       PRES   REMARKS
LITTLE ROCK    MOSUNNY   61  24  24 SW16G25   29.82F
N LITTLE ROCK    N/A     62  27  27 SW9       29.85F
JACKSONVILLE   SUNNY     62  25  24 SW12      29.81F
SEARCY         SUNNY     62  24  23 SW14G20   29.80F
HOT SPRINGS    SUNNY     64  23  21 SW18G25   29.84F
RUSSELLVILLE   SUNNY     60  25  26 NW15      29.80F
CLINTON        FAIR      61  23  23 SW13G20   29.78F
$$

ARZ036-132100-
EAST ARKANSAS

CITY           SKY/WX    TMP DP  RH WIND       PRES   REMARKS
WEST MEMPHIS   SUNNY     56  27  32 SW15G25   29.81F
$$

ARZ050-053-066-070-073-132100-
SOUTHWEST ARKANSAS

CITY           SKY/WX    TMP DP  RH WIND       PRES   REMARKS
ARKADELPHIA    FAIR      66  27  23 SW13      29.87F
CAMDEN         SUNNY     66  21  18 SW10      29.90F
TEXARKANA      SUNNY     65  24  21 SW18      29.91F
EL DORADO      SUNNY     64  26  23 SW10G18   29.94F
DE QUEEN       SUNNY     67  29  24 W14       29.86F
$$

ARZ056-057-069-132100-
SOUTHEAST ARKANSAS

CITY           SKY/WX    TMP DP  RH WIND       PRES   REMARKS
PINE BLUFF     SUNNY     62  22  21 SW20      29.85F
STUTTGART      SUNNY     62  23  22 SW21G29   29.83F
MONTICELLO     SUNNY     63  22  20 SW12G22   29.90F

$$






USA.gov is the U.S. government's official web portal to all federal, state and local government web resources and services.